Flag for Brazil Weather past 2 weeks in Brasilia, Distrito Federal, Brazil

Now
75 °F

Broken clouds.


Feels Like: 77 °F
Forecast: 67 / 73 °F
Wind: No wind

Location: Brasilia Aeroporto

Current Time: Jan 25, 2015 at 2:55:25 PM

Latest Report: Jan 25, 2015 at 2:00 PM


Visibility: N/A

Pressure: 30.09 "Hg

Humidity: 61%

Dew point: 61 °F

Location of BrasiliaLocation

Historic Weather in Brasilia — Graph

°F

Brasilia temperature yesterday

Maximum temperature yesterday: 77 °F (at 2:00 PM)
Minimum temperature yesterday: 64 °F (at 1:00 AM)
Average temperature yesterday: 68 °F

Past Weeks' High & Low Weather Summary

 TemperatureHumidityPressure
High88 °F (Jan 13, 5:00 PM)100% (Jan 22, 7:00 AM)30.18 "Hg (Jan 22, 7:00 AM)
Low46 °F (Jan 22, 7:00 AM)24% (Jan 20, 5:00 PM)29.95 "Hg (Jan 20, 5:00 PM)
Average75 °F58%30.08 "Hg
* Reported Jan 10 2:00 PM — Jan 25 2:00 PM, Brasilia, Weather by CustomWeather, © 2014

Note: Actual official high and low records may vary slightly from our data, if they occured in-between our weather recording intervals... More about our weather records

Advertising

Brasilia weather history for previous 24 hours

 ConditionsComfort  
Time TempWeatherWind HumidityBarometerVisibility
2:00 PM
Jan 25
75 °FBroken clouds.No wind61%30.09 "HgN/A
1:00 PM75 °FBroken clouds.6 mph57%30.12 "HgN/A
12:00 PM73 °FBroken clouds.7 mph65%30.12 "HgN/A
11:00 AM72 °FBroken clouds.5 mph69%30.15 "HgN/A
10:00 AM68 °FBroken clouds.3 mph83%30.12 "HgN/A
9:00 AM66 °FPartly sunny.5 mph88%30.12 "HgN/A
8:00 AM64 °FPartly sunny.No wind94%30.09 "HgN/A
7:00 AM66 °FPassing clouds.5 mph73%30.07 "HgN/A
6:00 AM64 °FPassing clouds.No wind78%30.07 "HgN/A
5:00 AM64 °FPassing clouds.3 mph83%30.07 "HgN/A
4:00 AM64 °FPartly cloudy.8 mph83%30.07 "HgN/A
3:00 AM66 °FPartly cloudy.No wind83%30.07 "HgN/A
2:00 AM66 °FClear.No wind78%30.09 "Hg10 mi
1:00 AM66 °FPassing clouds.5 mph83%30.09 "HgN/A
12:00 AM68 °FPassing clouds.5 mph73%30.12 "HgN/A
11:00 PM
Jan 24
66 °FPassing clouds.No wind78%30.09 "HgN/A
10:00 PM68 °FPassing clouds.13 mph78%30.09 "HgN/A
9:00 PM68 °FThundershowers. Partly cloudy.13 mph78%N/AN/A
8:00 PM72 °FThundershowers. Partly sunny.12 mph73%N/AN/A
7:00 PM72 °FScattered showers. Partly sunny.5 mph69%N/AN/A
6:00 PM72 °FScattered showers. Broken clouds.3 mph65%N/AN/A
5:00 PM70 °FScattered showers. Broken clouds.9 mph73%N/AN/A
4:00 PM75 °FScattered showers. Broken clouds.13 mph65%N/AN/A
3:00 PM77 °FScattered showers. Broken clouds.7 mph61%N/AN/A
2:00 PM77 °FBroken clouds.13 mph61%30.07 "HgN/A
Weather by CustomWeather, © 2014

See weather overviewHow to use our weather pages